Terug naar catalogus

STARLINK-32050

ActiefCommunicatieVLEO
NORAD 60137·PAYLOAD·🇺🇸 United States

Gelanceerd Jun 27, 2024 vanaf Cape Canaveral Space Force Station

Loading…

Volgende Passages (komende 24 uur)

TLE

VersSource: CelesTrak SupGP

Epoch: Sep 15, 2026, 03:26 UTC

1 60137C 24120C   26258.14354167  .00016070  00000+0  47485-3 0  2582
2 60137  53.1581 156.7374 0001281  86.4791  53.9295 15.34378768    18

Volg STARLINK-32050 in realtime met AllMySat

Download on the App Store